星链-11072 [DTC] (STARLINK-11072 [DTC] )

导读

STARLINK-11072是美国太空探索技术公司星链星座的一员,于2024年1月3日发射升空,归属美国所有。它继承星链卫星低轨道部署的设计思路,旨在为全球提供高速卫星互联网服务,补充星链星座全球覆盖的网络密度,强化偏远地区、海上空域等网络薄弱区域的连接能力,是星链规模扩张计划的典型组网卫星。

基本信息
目录编号:
58705
目录名称:
STARLINK-11072
国际标识:
2024-002A
轨道中心:
EARTH
卫星名称:
星链-11072 [DTC]
卫星全名:
星链-11072 [DTC] (STARLINK-11072 [DTC] )
卫星状态:
在轨 (已飞行976 天)
发射日期:
2024-01-03 UTC
国别 :
美国 (US)
星等 :
--
轨道信息
数据来源 国际轨道数据
星历时间: 2026-09-05T08:32:08+0800
9小时前
查看轨道信息
半长轴: 6737.932km
偏心率: 0.0001163
轨道倾角: 53.159°
近地点辐角 99.141°
升交点赤经 109.970°
平近点角 260.974°
近地点: 359.011km
远地点: 360.579km
周期: 91.738分钟
每日圈数: 15.696864
详细信息
固有亮度:
5
最大亮度:
0.6
卫星平台:
Starlink v2.0 mini
覆盖范围:
全球
运营商:
太空探索技术公司
运营商所在国:
美国
制造商(研发单位):
太空探索技术公司
制造商所在国:
美国
使用方式:
暂无
卫星简介
星链(Starlink)计划是由太空探索技术公司(SpaceX)提出的一个巨型低轨卫星互联网星座项目,计划在2019年至2024年间在太空搭建由约1.2万颗卫星组成的“星链”网络,其中1584颗将部署在地球上空550千米处的近地轨道,并从2020年开始工作。该卫星仍在工作。
2D轨道图
3D轨道图
轨道高度分析图
轨道倾角分析图
轨道综合分析图
查看轨道综合分析图